{"data":{"norad_id":64255,"intl_designator":"2025-119Y","name":"STARLINK-34211","alt_names":[],"object_type":"PAYLOAD","status":"ACTIVE","operator":null,"country":"US","launch_date":"2025-06-03","launch_site_code":"AFETR","launch_vehicle":null,"mission":null,"orbit_class":"UNKNOWN","rcs_meters":null,"size_class":null,"mass_kg":null,"dimensions":null,"purposes":["comms"],"wikipedia_slug":null,"has_3d_model":false,"image_url":null,"decayed_at":null,"tle_current":{"epoch":"2026-09-19T03:50:33.548928Z","epoch_age_seconds":253320,"freshness":"STALE","line1":"1 64255U 25119Y   26262.16011052  .00009745  00000+0  36308-3 0  9991","line2":"2 64255  42.9994 294.8136 0001141 227.9252 132.1503 15.27588701 73751","mean_motion":15.27588701,"eccentricity":0.0001141,"inclination_deg":42.9994,"raan_deg":294.8136,"arg_perigee_deg":227.9252,"mean_anomaly_deg":132.1503,"bstar":0.00036308,"rev_number":7375,"period_min":94.266211779214,"perigee_km":482.24018387833,"apogee_km":483.80590059997,"semimajor_km":6861.1600422392,"source":"CELESTRAK","updated_at":"2026-09-21T09:00:35.280994Z"}}}